This is the latest recevied weather packets stored in our database for station/object HS9UAC-10. If no packets are shown the sender has not sent any weather packets the latest 10 day(s).
| Time | Temp. | Humidity | Pressure | Rain* | Wind** | Luminosity | Snow |
|---|---|---|---|---|---|---|---|
| 1777699631 | 38.33° C | 51% | 1007 hPa | - | - | 0 W/m² | - |
| 1777698706 | 38.89° C | 50% | 1007 hPa | - | - | 0 W/m² | - |
| 1777697782 | 37.78° C | 53% | 1008 hPa | - | - | 0 W/m² | - |
| 1777696857 | 38.33° C | 51% | 1008 hPa | - | - | 0 W/m² | - |
| 1777695933 | 37.78° C | 53% | 1008 hPa | - | - | 0 W/m² | - |
| 1777695008 | 37.78° C | 54% | 1009 hPa | - | - | 0 W/m² | - |
| 1777694083 | 37.22° C | 59% | 1009 hPa | - | - | 0 W/m² | - |
| 1777693159 | 37.78° C | 57% | 1009 hPa | - | - | 0 W/m² | - |
| 1777692234 | 36.67° C | 63% | 1009 hPa | - | - | 0 W/m² | - |
| 1777691310 | 37.22° C | 60% | 1009 hPa | - | - | 0 W/m² | - |
| 1777690385 | 37.22° C | 60% | 1009 hPa | - | - | 0 W/m² | - |
| 1777689461 | 36.67° C | 63% | 1009 hPa | - | - | 0 W/m² | - |
| 1777688536 | 36.11° C | 62% | 1009 hPa | - | - | 0 W/m² | - |
| 1777687612 | 36.11° C | 67% | 1009 hPa | - | - | 0 W/m² | - |
| 1777686687 | 35.56° C | 68% | 1009 hPa | - | - | 0 W/m² | - |
| 1777685762 | 35° C | 73% | 1009 hPa | - | - | 0 W/m² | - |
| 1777684838 | 35° C | 75% | 1008 hPa | - | - | 0 W/m² | - |
| 1777683913 | 34.44° C | 79% | 1008 hPa | - | - | 0 W/m² | - |
| 1777682989 | 33.89° C | 78% | 1008 hPa | - | - | 0 W/m² | - |
| 1777682064 | 33.89° C | 79% | 1008 hPa | - | - | 0 W/m² | - |
| 1777681140 | 33.89° C | 83% | 1008 hPa | - | - | 0 W/m² | - |
| 1777680215 | 33.33° C | 84% | 1007 hPa | - | - | 0 W/m² | - |
| 1777679291 | 32.78° C | 88% | 1007 hPa | - | - | 0 W/m² | - |
| 1777678366 | 32.22° C | 89% | 1008 hPa | - | - | 0 W/m² | - |
| 1777677441 | 32.22° C | 90% | 1008 hPa | - | - | 0 W/m² | - |
* Rain since midnight (hover to see other rain measurements)
** Current wind speed in m/s (hover to see current wind gust speed)